Fuerteventura, El Salvador

12:33 PM WEST am 24. Mai 2017 (GMT +0100)
Fuerteventura

Wetter Verlauf für GCFV - März, 2017

Change the Weather History Date:

Montag, März 20, 2017

  Actual Average Record
Temperature  
mittlereTemperatur 67 °F -  
Max. Temperatur 72 °F 70 °F 77 °F (2002)
Min.Temperatur 62 °F 60 °F 57 °F (2015)
Cooling Degree Days 2    
Growing Degree Days 17 (Base 50)    
Moisture  
Taupunkt 56 °F    
Average Humidity 69    
Maximum Humidity 82    
Minimum Humidity 49    
Niederschlag  
Niederschlag 0.00 inch - - ()
Luftdruck in Meereshöhe  
Luftdruck in Meereshöhe 30.17 inch    
Wind  
Windgeschwindigkeit 12 mph ()    
Max. Windgeschwindigkeit 20 mph    
Max Gust Speed -    
Sichtweite 6.4 Meilen    
Ereignisse      
Averages and records for this station are not official NWS values.
T = Trace of Precipitation, MM = Missing Value Source: Averaged Metar Reports

Daily Weather History Graph

Daily Weather History Graph

Search for Another Location

Airport or City:

Trip Planner

Search our weather history database for the weather conditions in past years. The results will help you decide how hot, cold, wet, or windy it might be!

Date:

Astronomie

Mar. 20, 2017 Aufgang Untergang
Genaue Zeit 06:59 WET 19:06 WET
Bürgerliche Dämmerung 06:35 WET 19:30 WET
Nautische Dämmerung 06:08 WET 19:57 WET
Astronomische Dämmerung 05:40 WET 20:25 WET
Mond 01:15 WET (3/20) 12:12 WET (3/20)
Länge des sichtbaren Lichts 12h 54m
Tageslänge
12h 07m
Drittes Viertel, 52% of the Moon is Illuminated
Mrz 20
Drittes Viertel
Mrz 20
Letztes Viertel
Mrz 28
Neu
Apr 3
Erstes Viertel
Apr 11
Vollmond

Hourly Weather History & Observations

Zeit (WET) Temp. Taupunkt Feuchtigkeit Druck Sichtweite Wind Dir Windgeschwindigkeit Böengeschwindigkeit Precip Ereignisse Wetterzustand
12:00 AM 63 °F 56 °F 73% 30.12 inch 6 mi Nord-Nordwest 10.4 mph - -  
12:00 AM 62.6 °F 57.2 °F 82% 30.09 inch 6.2 mi Nord-Nordwest 10.4 mph - N/A   Unbekannt
12:30 AM 62.6 °F 55.4 °F 77% 30.09 inch 6.2 mi Nord 10.4 mph - N/A   Unbekannt
1:00 AM 62.6 °F 55.4 °F 77% 30.09 inch 6.2 mi Nord 12.7 mph - N/A   Teils Wolkig
1:30 AM 62.6 °F 57.2 °F 82% 30.09 inch 6.2 mi Nord 12.7 mph - N/A   Teils Wolkig
2:00 AM 62.6 °F 57.2 °F 82% 30.09 inch 6.2 mi Nord 12.7 mph - N/A   Unbekannt
2:30 AM 62.6 °F 55.4 °F 77% 30.09 inch 6.2 mi Nord-Nordwest 12.7 mph - N/A   Unbekannt
3:00 AM 63 °F 56 °F 73% 30.10 inch 7 mi Nord 12.7 mph - -  
3:00 AM 62.6 °F 57.2 °F 82% 30.09 inch 6.2 mi Nord 11.5 mph - N/A   Teils Wolkig
3:30 AM 62.6 °F 55.4 °F 77% 30.09 inch 6.2 mi Nord 17.3 mph - N/A   Unbekannt
4:00 AM 62.6 °F 55.4 °F 77% 30.09 inch 6.2 mi Nord 13.8 mph - N/A   Teils Wolkig
4:30 AM 62.6 °F 53.6 °F 72% 30.09 inch 6.2 mi Nord 16.1 mph - N/A   Teils Wolkig
5:00 AM 62.6 °F 55.4 °F 77% 30.09 inch 6.2 mi Nord 16.1 mph - N/A   Bedeckt
5:30 AM 62.6 °F 53.6 °F 72% 30.09 inch 6.2 mi Nord 12.7 mph - N/A   Wolkig
6:00 AM 62.6 °F 53.6 °F 72% 30.09 inch 6.2 mi Nord 12.7 mph - N/A   Teils Wolkig
6:30 AM 62.6 °F 55.4 °F 77% 30.12 inch 6.2 mi Nord 12.7 mph - N/A   Teils Wolkig
7:00 AM 62.6 °F 55.4 °F 77% 30.15 inch 6.2 mi Nordwest 3.5 mph - N/A   Teils Wolkig
7:30 AM 62.6 °F 53.6 °F 72% 30.15 inch 6.2 mi Nord 10.4 mph - N/A   Teils Wolkig
8:00 AM 62.6 °F 53.6 °F 72% 30.15 inch 6.2 mi Nord 13.8 mph - N/A   Teils Wolkig
8:30 AM 64.4 °F 55.4 °F 73% 30.15 inch 6.2 mi Nord 13.8 mph - N/A   Teils Wolkig
9:00 AM 67 °F 56 °F 58% 30.18 inch 12 mi Nord 13.8 mph - -   Teils Wolkig
9:00 AM 66.2 °F 55.4 °F 68% 30.15 inch 6.2 mi Nord 12.7 mph - N/A   Teils Wolkig
9:30 AM 68.0 °F 53.6 °F 60% 30.18 inch 6.2 mi Nord-Nordost 13.8 mph - N/A   Teils Wolkig
10:00 AM 68.0 °F 55.4 °F 64% 30.18 inch 6.2 mi Nord-Nordost 11.5 mph - N/A   Teils Wolkig
10:30 AM 68.0 °F 55.4 °F 64% 30.18 inch 6.2 mi Nordost 9.2 mph - N/A   Teils Wolkig
11:00 AM 69.8 °F 55.4 °F 60% 30.18 inch 6.2 mi Nordost 11.5 mph - N/A   Teils Wolkig
11:30 AM 69.8 °F 55.4 °F 60% 30.18 inch 6.2 mi Nordost 10.4 mph - N/A   Teils Wolkig
12:00 PM 71 °F 57 °F 52% 30.21 inch 12 mi Nordost 12.7 mph - -   Teils Wolkig
12:00 PM 69.8 °F 57.2 °F 64% 30.18 inch 6.2 mi Ost-Nordost 11.5 mph - N/A   Teils Wolkig
12:30 PM 69.8 °F 59.0 °F 68% 30.18 inch 6.2 mi Ost-Nordost 12.7 mph - N/A   Teils Wolkig
1:00 PM 69.8 °F 59.0 °F 68% 30.18 inch 6.2 mi Nordost 11.5 mph - N/A   Teils Wolkig
1:30 PM 69.8 °F 60.8 °F 73% 30.18 inch 5.6 mi Ost-Nordost 10.4 mph - N/A   Teils Wolkig
2:00 PM 69.8 °F 59.0 °F 68% 30.18 inch 5.6 mi Ost-Nordost 11.5 mph - N/A   Teils Wolkig
2:30 PM 69.8 °F 59.0 °F 68% 30.18 inch 5.6 mi Nordost 11.5 mph - N/A   Teils Wolkig
3:00 PM 71 °F 60 °F 59% 30.20 inch 6 mi Nordost 13.8 mph - -   Teils Wolkig
3:00 PM 69.8 °F 59.0 °F 68% 30.18 inch 6.2 mi Nordost 13.8 mph - N/A   Teils Wolkig
3:30 PM 69.8 °F 59.0 °F 68% 30.18 inch 6.2 mi Nordost 15.0 mph - N/A   Teils Wolkig
4:00 PM 69.8 °F 59.0 °F 68% 30.18 inch 6.2 mi Nordost 16.1 mph - N/A   Teils Wolkig
4:30 PM 69.8 °F 57.2 °F 64% 30.18 inch 6.2 mi Nord-Nordost 17.3 mph - N/A   Teils Wolkig
5:00 PM 69.8 °F 55.4 °F 60% 30.18 inch 6.2 mi Nord 18.4 mph - N/A   Teils Wolkig
6:00 PM 70 °F 55 °F 49% 30.21 inch 6 mi Nord 17.3 mph - -   Teils Wolkig
6:00 PM 69.8 °F 55.4 °F 60% 30.21 inch 6.2 mi Nord 16.1 mph - N/A   Teils Wolkig
6:30 PM 68.0 °F 55.4 °F 64% 30.21 inch 6.2 mi Nord 17.3 mph - N/A   Teils Wolkig
7:00 PM 68.0 °F 55.4 °F 64% 30.24 inch 6.2 mi Nord 17.3 mph - N/A   Teils Wolkig
7:30 PM 66.2 °F 55.4 °F 68% 30.24 inch 6.2 mi Nord 18.4 mph - N/A   Teils Wolkig
8:00 PM 66.2 °F 55.4 °F 68% 30.24 inch 6.2 mi Nord 17.3 mph - N/A   Teils Wolkig
8:30 PM 64.4 °F 55.4 °F 73% 30.24 inch 6.2 mi Nord 15.0 mph - N/A   Teils Wolkig
9:00 PM 65 °F 55 °F 62% 30.28 inch 6 mi Nord 18.4 mph - -   Teils Wolkig
9:00 PM 64.4 °F 55.4 °F 73% 30.27 inch 6.2 mi Nord 17.3 mph - N/A   Teils Wolkig
9:30 PM 64.4 °F 55.4 °F 73% 30.27 inch 6.2 mi Nord 19.6 mph - N/A   Teils Wolkig
10:00 PM 64.4 °F 55.4 °F 73% 30.27 inch 6.2 mi Nord 18.4 mph - N/A   Teils Wolkig
10:30 PM 62.6 °F 55.4 °F 77% 30.27 inch 6.2 mi Nord 19.6 mph - N/A   Teils Wolkig
11:30 PM 62.6 °F 53.6 °F 72% 30.27 inch 6.2 mi Nord 16.1 mph - N/A   Unbekannt